Overview Statistics Trail Chart Weather Telemetry Raw packets
 

This is the latest recevied weather packets stored in our database for station/object WX4SGA. If no packets are shown the sender has not sent any weather packets the latest 10 day(s).

<< 63 64 65 66 67 68 69 >>
Time Temp. Humidity Pressure Rain* Wind** Luminosity Snow
1788182841 24.44° C 99% 1020 hPa 0 mm - 165 W/m² -
1788182540 23.89° C 99% 1020 hPa 0 mm - 150 W/m² -
1788182235 23.89° C 99% 1020.3 hPa 0 mm - 101 W/m² -
1788181932 23.89° C 99% 1020 hPa 0 mm - 86 W/m² -
1788181626 23.89° C 99% 1020 hPa 0 mm - 67 W/m² -
1788181322 23.89° C 99% 1020 hPa 0 mm - 66 W/m² -
1788181020 23.89° C 99% 1020 hPa 0 mm - 83 W/m² -
1788180717 23.89° C 99% 1020 hPa 0 mm - 79 W/m² -
1788180411 23.89° C 99% 1019.6 hPa 0 mm - 73 W/m² -
1788180108 23.89° C 99% 1019.6 hPa 0 mm - 62 W/m² -
1788179808 23.89° C 99% 1019.6 hPa 0 mm - 57 W/m² -
1788179506 23.33° C 99% 1019.6 hPa 0 mm - 63 W/m² -
1788179205 23.33° C 99% 1019.6 hPa 0 mm - 55 W/m² -
1788178902 23.33° C 99% 1019.6 hPa 0 mm - 45 W/m² -
1788178601 23.33° C 99% 1019.6 hPa 0 mm - 48 W/m² -
1788178298 23.33° C 99% 1019.6 hPa 0 mm - 31 W/m² -
1788177993 23.33° C 99% 1019.3 hPa 0 mm - 26 W/m² -
1788177687 23.33° C 99% 1019.6 hPa 0 mm - 28 W/m² -
1788177384 23.33° C 99% 1019.3 hPa 0 mm - 22 W/m² -
1788177095 23.33° C 99% 1019.3 hPa 0 mm - 17 W/m² -
1788176778 23.33° C 99% 1019.3 hPa 0 mm - 17 W/m² -
1788176473 23.33° C 99% 1019.3 hPa 0 mm - 13 W/m² -
1788176172 23.33° C 99% 1019.3 hPa 0 mm - 10 W/m² -
1788175868 23.33° C 99% 1019 hPa 0 mm - 8 W/m² -
1788175567 23.33° C 99% 1019 hPa 0 mm - 7 W/m² -

* Rain latest hour (hover to see other rain measurements)
** Current wind speed in m/s (hover to see current wind gust speed)